Location: N�rnberg
(49.4471°N, 11.0632°E)
Time: 18:20:23
(UTC+01:00)

Envisat - Pass Details

Date: 24 February 2026
Orbit: 761 x 763 km, 98.4° (Epoch: 6 March)

Event Time Altitude Azimuth Distance (km) Brightness Sun altitude
Rises 02:29:08 0° 19° (NNE) 3,236 6.9 -42.9°
Reaches altitude 10° 02:31:33 10° 26° (NNE) 2,305 6.1 -42.6°
Enters shadow 02:32:10 13° 29° (NNE) 2,083 5.8 -42.6°
